| time (UTC) | temp C | wind direction | speed KPH | gust KPH | rain 1hr cm | rain 24hr cm | rain mn cm | humidity % | barometer mb |
| 20260505040029 | 10 | 230 | 0.0 | 0.0 | 0.00 | 0.00 | 0.00 | 92 | 1010.3 |
| 20260505035525 | 10 | 230 | 0.0 | 0.0 | 0.00 | 0.00 | 0.00 | 92 | 1010.2 |
| 20260505035022 | 10 | 230 | 0.0 | 0.0 | 0.00 | 0.00 | 0.00 | 92 | 1010.3 |
| 20260505034518 | 10 | 230 | 0.0 | 0.0 | 0.00 | 0.00 | 0.00 | 91 | 1010.3 |
| 20260505034015 | 10 | 230 | 0.0 | 0.0 | 0.00 | 0.00 | 0.00 | 92 | 1010.2 |
| 20260505033513 | 10 | 230 | 0.0 | 0.0 | 0.00 | 0.00 | 0.00 | 92 | 1010.3 |
| 20260505033011 | 10 | 230 | 0.0 | 0.0 | 0.00 | 0.00 | 0.00 | 92 | 1010.2 |
| 20260505032508 | 10 | 227 | 0.0 | 0.0 | 0.00 | 0.00 | 0.00 | 92 | 1010.3 |
| 20260505032004 | 10 | 253 | 0.0 | 0.0 | 0.00 | 0.00 | 0.00 | 92 | 1010.3 |
| 20260505031501 | 10 | 253 | 0.0 | 0.0 | 0.00 | 0.00 | 0.00 | 92 | 1010.4 |
| 20260505030958 | 10 | 235 | 0.0 | 0.0 | 0.00 | 0.00 | 0.00 | 92 | 1010.3 |
| 20260505030454 | 10 | 243 | 0.0 | 0.0 | 0.00 | 0.00 | 0.00 | 92 | 1010.5 |
| 20260505025949 | 10 | 244 | 0.0 | 3.2 | 0.00 | 0.00 | 0.00 | 91 | 1010.5 |
| 20260505025447 | 10 | 270 | 3.2 | 4.8 | 0.00 | 0.00 | 0.00 | 92 | 1010.5 |
| 20260505024946 | 10 | 252 | 0.0 | 0.0 | 0.00 | 0.00 | 0.00 | 91 | 1010.4 |
| 20260505024442 | 10 | 252 | 0.0 | 0.0 | 0.00 | 0.00 | 0.00 | 91 | 1010.4 |
| 20260505023940 | 10 | 230 | 0.0 | 0.0 | 0.00 | 0.00 | 0.00 | 91 | 1010.5 |
| 20260505023437 | 10 | 228 | 0.0 | 0.0 | 0.00 | 0.00 | 0.00 | 91 | 1010.5 |
| 20260505022934 | 10 | 227 | 0.0 | 0.0 | 0.00 | 0.00 | 0.00 | 91 | 1010.4 |
| 20260505022432 | 10 | 227 | 0.0 | 0.0 | 0.00 | 0.00 | 0.00 | 90 | 1010.5 |
| 20260505021928 | 11 | 227 | 0.0 | 0.0 | 0.00 | 0.00 | 0.00 | 90 | 1010.3 |
| 20260505021425 | 11 | 227 | 0.0 | 0.0 | 0.00 | 0.00 | 0.00 | 90 | 1010.3 |
| 20260505020920 | 11 | 227 | 0.0 | 0.0 | 0.00 | 0.00 | 0.00 | 89 | 1010.7 |
| 20260505020416 | 11 | 227 | 0.0 | 0.0 | 0.00 | 0.00 | 0.00 | 89 | 1010.7 |
| 20260505015913 | 11 | 227 | 0.0 | 0.0 | 0.00 | 0.00 | 0.00 | 89 | 1010.5 |
| 20260505015410 | 11 | 227 | 0.0 | 0.0 | 0.00 | 0.00 | 0.00 | 89 | 1010.8 |
| 20260505014908 | 11 | 227 | 0.0 | 0.0 | 0.00 | 0.00 | 0.00 | 89 | 1010.6 |
| 20260505014404 | 11 | 227 | 0.0 | 0.0 | 0.00 | 0.00 | 0.00 | 88 | 1010.6 |
| 20260505013901 | 12 | 227 | 0.0 | 0.0 | 0.00 | 0.00 | 0.00 | 87 | 1010.5 |
| 20260505013358 | 12 | 227 | 0.0 | 0.0 | 0.00 | 0.00 | 0.00 | 87 | 1010.6 |
| 20260505012856 | 12 | 227 | 0.0 | 0.0 | 0.00 | 0.00 | 0.00 | 86 | 1010.5 |
| 20260505012354 | 13 | 227 | 0.0 | 0.0 | 0.00 | 0.00 | 0.00 | 84 | 1010.7 |
| 20260505011850 | 13 | 227 | 0.0 | 0.0 | 0.00 | 0.00 | 0.00 | 85 | 1010.5 |
| 20260505011347 | 13 | 227 | 0.0 | 0.0 | 0.00 | 0.00 | 0.00 | 83 | 1010.5 |
| 20260505010843 | 14 | 227 | 0.0 | 0.0 | 0.00 | 0.00 | 0.00 | 81 | 1010.5 |
| 20260505010339 | 15 | 227 | 0.0 | 0.0 | 0.00 | 0.00 | 0.00 | 80 | 1010.4 |
| 20260505005835 | 15 | 227 | 0.0 | 0.0 | 0.00 | 0.00 | 0.00 | 79 | 1010.3 |
| 20260505005332 | 15 | 227 | 0.0 | 0.0 | 0.00 | 0.00 | 0.00 | 78 | 1010.3 |
| 20260505004830 | 15 | 227 | 0.0 | 0.0 | 0.00 | 0.00 | 0.00 | 75 | 1010.3 |
| 20260505004320 | 16 | 227 | 0.0 | 0.0 | 0.00 | 0.00 | 0.00 | 73 | 1010.3 |
| 20260505003818 | 16 | 227 | 0.0 | 0.0 | 0.00 | 0.00 | 0.00 | 73 | 1010.1 |
| 20260505003315 | 17 | 96 | 0.0 | 0.0 | 0.00 | 0.00 | 0.00 | 70 | 1010.3 |
| 20260505002811 | 17 | 96 | 0.0 | 0.0 | 0.00 | 0.00 | 0.00 | 68 | 1010.3 |
| 20260505002308 | 17 | 96 | 0.0 | 0.0 | 0.00 | 0.00 | 0.00 | 67 | 1010.2 |
| 20260505001807 | 18 | 95 | 0.0 | 0.0 | 0.00 | 0.00 | 0.00 | 64 | 1010.1 |
| 20260505001303 | 18 | 109 | 0.0 | 1.6 | 0.00 | 0.00 | 0.00 | 59 | 1010.4 |
| 20260505000801 | 18 | 220 | 0.0 | 0.0 | 0.00 | 0.00 | 0.00 | 58 | 1010.0 |
| 20260505000258 | 18 | 83 | 0.0 | 1.6 | 0.00 | 0.00 | 0.00 | 58 | 1010.3 |
| 20260504235754 | 19 | 98 | 0.0 | 3.2 | 0.00 | 0.00 | 0.00 | 58 | 1010.2 |
| 20260504235251 | 19 | 254 | 0.0 | 3.2 | 0.00 | 0.00 | 0.00 | 56 | 1010.1 |
| 20260504234748 | 20 | 81 | 1.6 | 1.6 | 0.00 | 0.00 | 0.00 | 56 | 1010.1 |
| 20260504234246 | 20 | 170 | 0.0 | 1.6 | 0.00 | 0.00 | 0.00 | 53 | 1010.0 |
| 20260504233742 | 20 | 227 | 1.6 | 4.8 | 0.00 | 0.00 | 0.00 | 53 | 1009.9 |
| 20260504233238 | 20 | 286 | 3.2 | 12.9 | 0.00 | 0.00 | 0.00 | 50 | 1009.9 |
| 20260504232735 | 20 | 260 | 0.0 | 4.8 | 0.00 | 0.00 | 0.00 | 52 | 1010.0 |
| 20260504232232 | 20 | 329 | 1.6 | 1.6 | 0.00 | 0.00 | 0.00 | 51 | 1009.9 |
| 20260504231729 | 20 | 78 | 0.0 | 3.2 | 0.00 | 0.00 | 0.00 | 51 | 1009.6 |
| 20260504231225 | 20 | 244 | 0.0 | 1.6 | 0.00 | 0.00 | 0.00 | 51 | 1010.0 |
| 20260504230721 | 21 | 259 | 6.4 | 9.7 | 0.00 | 0.00 | 0.00 | 51 | 1009.9 |
| 20260504230220 | 21 | 243 | 0.0 | 3.2 | 0.00 | 0.00 | 0.00 | 55 | 1009.8 |
| 20260504225718 | 22 | 295 | 0.0 | 3.2 | 0.00 | 0.00 | 0.00 | 48 | 1009.5 |
| 20260504225214 | 22 | 308 | 0.0 | 3.2 | 0.00 | 0.00 | 0.00 | 46 | 1009.8 |
| 20260504224711 | 22 | 319 | 1.6 | 3.2 | 0.00 | 0.00 | 0.00 | 45 | 1009.8 |
| 20260504224209 | 21 | 104 | 0.0 | 1.6 | 0.00 | 0.00 | 0.00 | 47 | 1010.0 |
| 20260504223705 | 21 | 258 | 0.0 | 4.8 | 0.00 | 0.00 | 0.00 | 49 | 1009.8 |
| 20260504223200 | 21 | 228 | 1.6 | 6.4 | 0.00 | 0.00 | 0.00 | 48 | 1010.2 |
| 20260504222658 | 21 | 273 | 11.3 | 17.7 | 0.00 | 0.00 | 0.00 | 46 | 1010.1 |
| 20260504222154 | 21 | 263 | 4.8 | 9.7 | 0.00 | 0.00 | 0.00 | 48 | 1010.2 |
| 20260504221651 | 21 | 314 | 1.6 | 11.3 | 0.00 | 0.00 | 0.00 | 46 | 1010.4 |
| 20260504221149 | 22 | 230 | 6.4 | 16.1 | 0.00 | 0.00 | 0.00 | 47 | 1010.3 |
| 20260504220645 | 22 | 253 | 9.7 | 11.3 | 0.00 | 0.00 | 0.00 | 48 | 1010.1 |
| 20260504220143 | 22 | 242 | 4.8 | 12.9 | 0.00 | 0.00 | 0.00 | 49 | 1010.1 |
| 20260504215639 | 21 | 222 | 4.8 | 4.8 | 0.00 | 0.00 | 0.00 | 47 | 1009.9 |
| 20260504215136 | 21 | 258 | 12.9 | 14.5 | 0.00 | 0.00 | 0.00 | 48 | 1009.8 |
| 20260504214632 | 21 | 221 | 8.0 | 11.3 | 0.00 | 0.00 | 0.00 | 48 | 1009.7 |
| 20260504214128 | 22 | 224 | 3.2 | 4.8 | 0.00 | 0.00 | 0.00 | 50 | 1009.8 |
| 20260504213624 | 22 | 250 | 4.8 | 9.7 | 0.00 | 0.00 | 0.00 | 47 | 1010.0 |
| 20260504213116 | 22 | 235 | 3.2 | 4.8 | 0.00 | 0.00 | 0.00 | 48 | 1009.7 |
| 20260504212612 | 21 | 278 | 6.4 | 9.7 | 0.00 | 0.00 | 0.00 | 48 | 1010.0 |
| 20260504212110 | 21 | 246 | 1.6 | 16.1 | 0.00 | 0.00 | 0.00 | 49 | 1009.9 |
| 20260504211607 | 21 | 229 | 3.2 | 6.4 | 0.00 | 0.00 | 0.00 | 49 | 1010.3 |
| 20260504211103 | 21 | 249 | 8.0 | 11.3 | 0.00 | 0.00 | 0.00 | 48 | 1010.1 |
| 20260504210601 | 21 | 264 | 8.0 | 14.5 | 0.00 | 0.00 | 0.00 | 47 | 1009.9 |
| 20260504210057 | 22 | 298 | 11.3 | 16.1 | 0.00 | 0.00 | 0.00 | 45 | 1009.9 |
| 20260504205555 | 22 | 236 | 4.8 | 14.5 | 0.00 | 0.00 | 0.00 | 45 | 1009.8 |
| 20260504205053 | 21 | 268 | 3.2 | 3.2 | 0.00 | 0.00 | 0.00 | 47 | 1009.8 |
| 20260504204550 | 21 | 264 | 6.4 | 11.3 | 0.00 | 0.00 | 0.00 | 48 | 1009.9 |
| 20260504204049 | 22 | 209 | 9.7 | 16.1 | 0.00 | 0.00 | 0.00 | 45 | 1009.9 |
| 20260504203547 | 22 | 266 | 3.2 | 6.4 | 0.00 | 0.00 | 0.00 | 45 | 1009.8 |
| 20260504203044 | 22 | 233 | 8.0 | 11.3 | 0.00 | 0.00 | 0.00 | 44 | 1009.7 |
| 20260504202539 | 21 | 246 | 1.6 | 6.4 | 0.00 | 0.00 | 0.00 | 45 | 1010.0 |
| 20260504202037 | 21 | 308 | 6.4 | 11.3 | 0.00 | 0.00 | 0.00 | 46 | 1010.0 |
| 20260504201533 | 21 | 240 | 8.0 | 14.5 | 0.00 | 0.00 | 0.00 | 47 | 1010.1 |
| 20260504201032 | 22 | 274 | 6.4 | 12.9 | 0.00 | 0.00 | 0.00 | 46 | 1009.9 |
| 20260504200527 | 22 | 266 | 4.8 | 20.9 | 0.00 | 0.00 | 0.00 | 45 | 1010.0 |
| 20260504200025 | 22 | 259 | 8.0 | 16.1 | 0.00 | 0.00 | 0.00 | 44 | 1009.9 |
| 20260504195520 | 22 | 256 | 3.2 | 12.9 | 0.00 | 0.00 | 0.00 | 44 | 1010.0 |
| 20260504195017 | 22 | 251 | 20.9 | 25.7 | 0.00 | 0.00 | 0.00 | 43 | 1010.1 |
| 20260504194514 | 23 | 300 | 14.5 | 24.1 | 0.00 | 0.00 | 0.00 | 44 | 1010.1 |
| 20260504194009 | 22 | 245 | 8.0 | 14.5 | 0.00 | 0.00 | 0.00 | 44 | 1010.0 |
| 20260504193506 | 22 | 259 | 16.1 | 17.7 | 0.00 | 0.00 | 0.00 | 45 | 1010.0 |
| 20260504193005 | 22 | 236 | 6.4 | 17.7 | 0.00 | 0.00 | 0.00 | 48 | 1009.9 |
| 20260504192502 | 21 | 275 | 3.2 | 6.4 | 0.00 | 0.00 | 0.00 | 45 | 1009.8 |
| 20260504192001 | 22 | 103 | 1.6 | 11.3 | 0.00 | 0.00 | 0.00 | 45 | 1010.3 |
| 20260504191458 | 21 | 232 | 6.4 | 17.7 | 0.00 | 0.00 | 0.00 | 49 | 1010.1 |
| 20260504190953 | 21 | 265 | 14.5 | 17.7 | 0.00 | 0.00 | 0.00 | 51 | 1010.5 |
| 20260504190449 | 21 | 223 | 6.4 | 16.1 | 0.00 | 0.00 | 0.00 | 48 | 1010.5 |
| 20260504185946 | 21 | 294 | 14.5 | 24.1 | 0.00 | 0.00 | 0.00 | 49 | 1010.4 |
| 20260504185444 | 21 | 233 | 4.8 | 24.1 | 0.00 | 0.00 | 0.00 | 46 | 1010.5 |
| 20260504184939 | 21 | 224 | 3.2 | 6.4 | 0.00 | 0.00 | 0.00 | 50 | 1010.5 |
| 20260504184436 | 21 | 258 | 14.5 | 22.5 | 0.00 | 0.00 | 0.00 | 46 | 1010.8 |
| 20260504183931 | 21 | 216 | 4.8 | 20.9 | 0.00 | 0.00 | 0.00 | 48 | 1010.9 |
| 20260504183429 | 21 | 259 | 4.8 | 6.4 | 0.00 | 0.00 | 0.00 | 48 | 1010.9 |
| 20260504182927 | 20 | 148 | 8.0 | 17.7 | 0.00 | 0.00 | 0.00 | 48 | 1011.0 |
| 20260504182423 | 20 | 214 | 8.0 | 24.1 | 0.00 | 0.00 | 0.00 | 49 | 1011.1 |
| 20260504181921 | 20 | 219 | 3.2 | 16.1 | 0.00 | 0.00 | 0.00 | 49 | 1011.2 |
| 20260504181418 | 20 | 248 | 9.7 | 22.5 | 0.00 | 0.00 | 0.00 | 51 | 1010.9 |
| 20260504180916 | 20 | 224 | 8.0 | 16.1 | 0.00 | 0.00 | 0.00 | 53 | 1011.0 |
| 20260504180415 | 20 | 288 | 22.5 | 25.7 | 0.00 | 0.00 | 0.00 | 53 | 1011.2 |
| 20260504175912 | 20 | 255 | 16.1 | 22.5 | 0.00 | 0.00 | 0.00 | 51 | 1011.4 |
| 20260504175409 | 20 | 289 | 9.7 | 20.9 | 0.00 | 0.00 | 0.00 | 56 | 1011.4 |
| 20260504174907 | 20 | 213 | 6.4 | 22.5 | 0.00 | 0.00 | 0.00 | 52 | 1011.5 |
| 20260504174404 | 20 | 319 | 6.4 | 16.1 | 0.00 | 0.00 | 0.00 | 52 | 1011.3 |
| 20260504173902 | 19 | 275 | 11.3 | 17.7 | 0.00 | 0.00 | 0.00 | 52 | 1011.6 |
| 20260504173358 | 20 | 281 | 6.4 | 9.7 | 0.00 | 0.00 | 0.00 | 56 | 1011.5 |
| 20260504172855 | 19 | 282 | 11.3 | 20.9 | 0.00 | 0.00 | 0.00 | 53 | 1011.5 |
| 20260504172351 | 19 | 94 | 6.4 | 24.1 | 0.00 | 0.00 | 0.00 | 51 | 1011.5 |
| 20260504171847 | 19 | 111 | 3.2 | 14.5 | 0.00 | 0.00 | 0.00 | 51 | 1011.6 |
| 20260504171345 | 20 | 224 | 6.4 | 6.4 | 0.00 | 0.00 | 0.00 | 54 | 1011.6 |
| 20260504170842 | 20 | 207 | 1.6 | 14.5 | 0.00 | 0.00 | 0.00 | 52 | 1012.1 |
| 20260504170338 | 20 | 238 | 12.9 | 16.1 | 0.00 | 0.00 | 0.00 | 55 | 1012.2 |
| 20260504160257 | 18 | 224 | 8.0 | 14.5 | 0.00 | 0.00 | 0.00 | 51 | 1012.9 |
| 20260504150722 | 18 | 313 | 12.9 | 14.5 | 0.00 | 0.00 | 0.00 | 46 | 1013.3 |
| 20260504150218 | 17 | 251 | 6.4 | 11.3 | 0.00 | 0.00 | 0.00 | 51 | 1013.2 |
| 20260504141148 | 16 | 207 | 8.0 | 17.7 | 0.00 | 0.00 | 0.00 | 50 | 1013.5 |
| 20260504140645 | 16 | 270 | 6.4 | 11.3 | 0.00 | 0.00 | 0.00 | 47 | 1013.4 |
| 20260504140140 | 16 | 247 | 9.7 | 14.5 | 0.00 | 0.00 | 0.00 | 47 | 1013.6 |
| 20260504130609 | 15 | 299 | 4.8 | 6.4 | 0.00 | 0.00 | 0.00 | 50 | 1013.5 |
| 20260504130106 | 15 | 254 | 1.6 | 6.4 | 0.00 | 0.00 | 0.00 | 53 | 1013.5 |
| 20260504110457 | 6 | 183 | 0.0 | 0.0 | 0.00 | 0.00 | 0.00 | 93 | 1014.3 |
| 20260504100418 | 6 | 183 | 0.0 | 0.0 | 0.00 | 0.00 | 0.00 | 94 | 1014.4 |
| 20260504081811 | 7 | 2 | 0.0 | 0.0 | 0.00 | 0.00 | 0.00 | 89 | 1015.2 |
| 20260504081308 | 7 | 2 | 0.0 | 0.0 | 0.00 | 0.00 | 0.00 | 89 | 1015.3 |
| 20260504080804 | 7 | 2 | 0.0 | 0.0 | 0.00 | 0.00 | 0.00 | 89 | 1015.2 |
| 20260504080301 | 7 | 16 | 0.0 | 0.0 | 0.00 | 0.00 | 0.00 | 89 | 1015.2 |
| 20260504070228 | 6 | 251 | 0.0 | 0.0 | 0.00 | 0.00 | 0.00 | 88 | 1015.2 |
| 20260504060149 | 6 | 251 | 0.0 | 0.0 | 0.00 | 0.00 | 0.00 | 87 | 1015.6 |
| 20260504050617 | 6 | 251 | 0.0 | 0.0 | 0.00 | 0.00 | 0.00 | 87 | 1015.6 |
| 20260504050114 | 6 | 251 | 0.0 | 0.0 | 0.00 | 0.00 | 0.00 | 87 | 1015.7 |
| 20260504045611 | 6 | 251 | 0.0 | 0.0 | 0.00 | 0.00 | 0.00 | 87 | 1015.6 |
| 20260504045106 | 6 | 251 | 0.0 | 0.0 | 0.00 | 0.00 | 0.00 | 86 | 1015.3 |
| 20260504044604 | 6 | 251 | 0.0 | 0.0 | 0.00 | 0.00 | 0.00 | 86 | 1015.7 |
| 20260504044100 | 6 | 251 | 0.0 | 0.0 | 0.00 | 0.00 | 0.00 | 86 | 1015.7 |
| 20260504043558 | 6 | 251 | 0.0 | 0.0 | 0.00 | 0.00 | 0.00 | 85 | 1015.6 |
| 20260504043055 | 6 | 251 | 0.0 | 0.0 | 0.00 | 0.00 | 0.00 | 85 | 1015.5 |
| 20260504042552 | 6 | 251 | 0.0 | 0.0 | 0.00 | 0.00 | 0.00 | 85 | 1015.7 |
| 20260504042044 | 6 | 251 | 0.0 | 0.0 | 0.00 | 0.00 | 0.00 | 85 | 1015.8 |
| 20260504041539 | 6 | 251 | 0.0 | 0.0 | 0.00 | 0.00 | 0.00 | 84 | 1015.6 |
| 20260504041036 | 6 | 251 | 0.0 | 0.0 | 0.00 | 0.00 | 0.00 | 85 | 1015.5 |
| 20260504040533 | 6 | 251 | 0.0 | 0.0 | 0.00 | 0.00 | 0.00 | 85 | 1015.6 |